Volver al catálogo

ARIANE 5 R/B

ActivoHEO
NORAD 37811·ROCKET BODY·🇫🇷 France

Lanzado Sep 21, 2011 desde Guiana Space Centre

Loading…

Próximos Pases (próximas 24 horas)

TLE

ActualizadoSource: Space-Track

Época: Sep 14, 2026, 07:07 UTC

1 37811U 11049C   26257.29676581  .00008236  00000-0  96934-3 0  9994
2 37811   2.6208 102.2328 6881969 241.8835  34.4239  2.81705437136862

Sigue ARIANE 5 R/B en tiempo real con AllMySat

Download on the App Store